EO-80
1 40032U 14033Y 23068.16726648 .00011052 00000-0 10973-2 0 9990
2 40032 97.9606 7.5765 0008976 262.5899 97.4300 14.91882782473578
HODOYOSHI-1
1 40299U 14070B 23068.81366547 .00019537 00000-0 65180-3 0 9993
2 40299 97.2073 134.1706 0009848 272.1709 196.2762 15.31056316463594
FIREBIRD FU3
1 40377U 15003B 23068.79357934 .00123762 00000-0 21127-2 0 9992
2 40377 99.0773 0.3252 0067101 194.3674 165.5665 15.48338349449154
FIREBIRD FU4
1 40378U 15003C 23068.80097218 .00119347 00000-0 20315-2 0 9993
2 40378 99.0787 0.6237 0067187 193.7380 166.2040 15.48425929449164
GRIFEX
1 40379U 15003D 23068.70548735 .00059207 00000-0 16019-2 0 9992
2 40379 99.0811 342.1873 0093007 252.0346 107.0737 15.33155058448100
XW-2A
1 40903U 15049E 23068.80868043 .00221140 00000-0 10945-2 0 9992
2 40903 97.1309 135.3872 0006929 197.6086 270.3507 15.81414849420688
XW-2C
1 40906U 15049H 23068.78895215 .00021624 00000-0 90481-3 0 9992
2 40906 97.4970 75.7740 0013702 143.8103 29.1833 15.23506781413248
XW-2D
1 40907U 15049J 23068.84154115 .00025548 00000-0 10255-2 0 9996
2 40907 97.4951 76.1298 0013064 137.1750 340.3837 15.24879424413325
LILACSAT-2
1 40908U 15049K 23068.24024396 .00011295 00000-0 55363-3 0 9992
2 40908 97.5254 71.6754 0014541 170.7583 245.4311 15.18211612412624
XW-2E
1 40909U 15049L 23068.81424170 .00044264 00000-0 14301-2 0 9998
2 40909 97.4605 81.5338 0012326 112.9175 325.8146 15.31893194413891
XW-2F
1 40910U 15049M 23068.78909284 .00043832 00000-0 14419-2 0 9990
2 40910 97.4694 80.7171 0013141 114.0496 59.1881 15.31303871413646
XW-2B
1 40911U 15049N 23068.81733475 .00025180 00000-0 10161-2 0 9998
2 40911 97.4939 76.6005 0013125 138.7348 300.3027 15.24702903413206
DCBB
1 40912U 15049P 23068.81290745 .00053130 00000-0 15144-2 0 9999
2 40912 97.4272 85.1555 0012887 82.5479 3.9185 15.35815704414317
IO-86
1 40931U 15052B 23068.63826098 .00002101 00000-0 20126-3 0 9999
2 40931 5.9959 77.1291 0013315 322.3105 37.6935 14.77081612402615
ATHENOXAT-1
1 41168U 15077C 23068.80668003 .00109862 00000-0 28820-2 0 9998
2 41168 14.9836 268.5456 0007558 31.7082 69.7951 15.36766966400900
ChubuSat-2
1 41338U 16012B 23068.23100407 .00008712 00000-0 62467-3 0 9991
2 41338 31.0023 136.4374 0012582 260.7846 99.1367 15.03014087387326
ChubuSat-3
1 41339U 16012C 23068.88276186 .00007535 00000-0 54015-3 0 9993
2 41339 31.0110 129.2495 0012877 273.8864 86.0312 15.02965971387422
Horyu-4
1 41340U 16012D 23068.25151590 .00014119 00000-0 93387-3 0 9998
2 41340 31.0035 105.3567 0011537 317.8628 42.1121 15.06141176387635
e-st@r-II
1 41459U 16025D 23068.61500123 .00046965 00000-0 15867-2 0 9993
2 41459 98.1924 260.2554 0120426 84.6040 276.8927 15.23739015377700
AAUSAT4
1 41460U 16025E 23068.54012719 .00098477 00000-0 22867-2 0 9999
2 41460 98.1751 269.8304 0086408 47.8430 5.9604 15.38115133378364
LO-87
1 41557U 16033B 23068.79380266 .00073594 00000-0 14290-2 0 9991
2 41557 97.3832 173.6848 0009156 149.6935 6.2526 15.47341135378194
NuSat2
1 41558U 16033C 23068.76400981 .00080279 00000-0 14521-2 0 9991
2 41558 97.4110 180.9478 0008254 140.7414 15.0413 15.49363989378508
Lapan A3
1 41603U 16040E 23068.74841919 .00004997 00000-0 22283-3 0 9996
2 41603 97.1782 98.8856 0011511 312.2495 158.9878 15.21779982372367
Pratham
1 41783U 16059A 23068.22680151 .00001984 00000-0 38648-3 0 9992
2 41783 97.8816 103.7385 0034332 58.4794 301.9755 14.63732292344351
TY-1
1 41844U 16066D 23068.82370609 .00069880 00000-0 15971-2 0 9990
2 41844 97.3782 86.1061 0012446 65.9287 106.8128 15.42512813352306
CAS-2T
1 41847U 16066G 23068.77654895 .00004494 00000-0 67283-3 0 9993
2 41847 98.5145 137.7823 0362003 135.5169 227.5700 14.39322470332504
EO-88
1 42017U 17008BX 23067.99706409 .00162012 00000-0 26098-2 0 9991
2 42017 97.2275 136.9844 0002123 25.4594 334.6763 15.52366141337807
CAS-4B
1 42759U 17034B 23068.81374547 .00017164 00000-0 90455-3 0 9995
2 42759 43.0182 307.3023 0010182 185.6242 261.9243 15.15282409316559
CAS-4A
1 42761U 17034D 23068.83409050 .00016395 00000-0 86270-3 0 9993
2 42761 43.0176 305.7638 0010754 187.2201 267.0485 15.15359082316565
NIUSat
1 42766U 17036B 23068.30669829 .00039424 00000-0 12046-2 0 9991
2 42766 97.1712 102.1838 0013466 102.8065 257.4683 15.33685602317273
Aalto 1
1 42775U 17036L 23068.76497502 .00034191 00000-0 11227-2 0 9994
2 42775 97.1662 101.8798 0012933 102.4748 257.7942 15.31420236317280
URSA MAIOR
1 42776U 17036M 23068.54011371 .00038864 00000-0 12259-2 0 9994
2 42776 97.1673 102.7509 0012420 101.5362 258.7276 15.32688392317300
Max Valier Sat
1 42778U 17036P 23068.06841369 .00048975 00000-0 14844-2 0 9997
2 42778 97.1716 105.5283 0010976 104.0707 256.1757 15.33921556317359
Pegasus
1 42784U 17036V 23068.55374557 .00068054 00000-0 17570-2 0 9997
2 42784 97.1636 107.6894 0009854 98.8665 261.3697 15.38851713317616
NUDATSat
1 42787U 17036Y 23068.85991457 .00162685 00000-0 22893-2 0 9996
2 42787 97.1619 115.3952 0005911 92.6024 267.5907 15.56081253317966
SUCHAI 1
1 42788U 17036Z 23068.72136401 .00092252 00000-0 20147-2 0 9995
2 42788 97.1621 110.5704 0008415 93.3282 266.8929 15.43821130317887
SKCUBE
1 42789U 17036AA 23067.89948118 .00091194 00000-0 21712-2 0 9992
2 42789 97.1627 108.7304 0009043 97.3042 262.9234 15.41230364317613
VZLUSAT 1
1 42790U 17036AB 23067.57243567 .00189521 00000-0 27821-2 0 9994
2 42790 97.1600 113.9506 0005850 89.6869 270.5056 15.54832103317903
VENTA 1
1 42791U 17036AC 23067.86984905 .00076136 00000-0 19599-2 0 9995
2 42791 97.1641 108.1620 0009126 98.7548 261.4732 15.38913244317567
Robusta 1B
1 42792U 17036AD 23068.09367078 .00117558 00000-0 26307-2 0 9997
2 42792 97.1613 109.8154 0008288 96.4652 263.7540 15.42993656317715
D-SAT
1 42794U 17036AF 23068.48737778 .00009365 00000-0 75985-3 0 9993
2 42794 97.4624 65.2809 0116805 277.1034 81.6917 14.94602820311064
TechnoSat
1 42829U 17042E 23068.82005234 .00006253 00000-0 60590-3 0 9991
2 42829 97.3956 272.1952 0013240 194.1339 165.9513 14.92966314307661
AO-91
1 43017U 17073E 23068.75562184 .00018071 00000-0 12833-2 0 9996
2 43017 97.6452 317.0459 0240010 37.5246 324.2452 14.84362597286426
PICSAT
1 43132U 18004X 23068.19352389 .00074917 00000-0 16087-2 0 9997
2 43132 97.3411 149.4761 0006438 133.5165 226.6619 15.44409025287044
AO-92
1 43137U 18004AC 23068.16806661 .00051078 00000-0 13356-2 0 9995
2 43137 97.3377 146.7751 0007229 140.2839 219.8937 15.38562615286887
TianYi 2
1 43155U 18008A 23068.84180354 .00030650 00000-0 13640-2 0 9997
2 43155 97.3145 123.9530 0012922 299.4675 173.7242 15.21345052283524
Zhou Enlai
1 43156U 18008B 23068.81001729 .00033906 00000-0 15030-2 0 9995
2 43156 97.3194 123.9194 0010339 299.6982 171.8754 15.21481895283442
TianYi 6
1 43158U 18008D 23068.91411214 .00027015 00000-0 12737-2 0 9997
2 43158 97.3179 121.3528 0010111 304.6895 228.4605 15.19409898283329
S-Net D
1 43186U 18014G 23068.05887428 .00012508 00000-0 10210-2 0 9999
2 43186 97.6419 333.6925 0010837 129.9502 230.2675 14.99513834278546
S-Net B
1 43187U 18014H 23068.72680144 .00009207 00000-0 75306-3 0 9990
2 43187 97.6411 334.2852 0011068 127.7860 232.4368 14.99515547278642
